{"data":{"norad_id":39522,"epoch":"2026-09-20T03:26:04.462080Z","epoch_age_seconds":53082,"freshness":"FRESH","line1":"1 39522U 14007A   26263.14310720  .00000142  00000+0  00000+0 0  9995","line2":"2 39522   0.0635 291.9198 0003615 313.0479 207.5907  1.00273484 45927","mean_motion":1.00273484,"eccentricity":0.0003615,"inclination_deg":0.0635,"raan_deg":291.9198,"arg_perigee_deg":313.0479,"mean_anomaly_deg":207.5907,"bstar":0,"rev_number":4592,"period_min":1436.0725712891,"perigee_km":35770.876298113,"apogee_km":35801.361054967,"semimajor_km":42164.25567654,"source":"CELESTRAK","updated_at":"2026-09-20T09:00:35.209418Z"}}